Year,Month,Day,Hour,Minute,Value (Times are PST for temperature in C)
2013,05,01,00,00,4.30
2013,05,01,00,01,4.30
2013,05,01,00,02,4.20
2013,05,01,00,03,4.20
2013,05,01,00,04,4.20
2013,05,01,00,05,4.20
2013,05,01,00,06,4.20
2013,05,01,00,07,4.20
2013,05,01,00,08,4.20
2013,05,01,00,09,4.30
2013,05,01,00,10,4.40
2013,05,01,00,11,4.40
2013,05,01,00,12,4.50
2013,05,01,00,13,4.50
2013,05,01,00,14,4.60
2013,05,01,00,15,4.70
2013,05,01,00,16,4.70
2013,05,01,00,17,4.80
2013,05,01,00,18,4.80
2013,05,01,00,19,4.90
2013,05,01,00,20,4.90
2013,05,01,00,21,5.00
2013,05,01,00,22,5.00
2013,05,01,00,23,5.10
2013,05,01,00,24,5.20
2013,05,01,00,25,5.20
2013,05,01,00,26,5.30
2013,05,01,00,27,5.40
2013,05,01,00,28,5.40
2013,05,01,00,29,5.40
2013,05,01,00,30,5.40
2013,05,01,00,31,5.40
2013,05,01,00,32,5.40
2013,05,01,00,33,5.50
2013,05,01,00,34,5.50
2013,05,01,00,35,5.40
2013,05,01,00,36,5.40
2013,05,01,00,37,5.40
2013,05,01,00,38,5.50
2013,05,01,00,39,5.50
2013,05,01,00,40,5.60
2013,05,01,00,41,5.60
2013,05,01,00,42,5.70
2013,05,01,00,43,5.70
2013,05,01,00,44,5.70
2013,05,01,00,45,5.80
2013,05,01,00,46,5.80
2013,05,01,00,47,5.80
2013,05,01,00,48,5.80
2013,05,01,00,49,5.80
2013,05,01,00,50,5.80
2013,05,01,00,51,5.80
2013,05,01,00,52,5.80
2013,05,01,00,53,5.80
2013,05,01,00,54,5.80
2013,05,01,00,55,5.90
2013,05,01,00,56,5.80
2013,05,01,00,57,5.80
2013,05,01,00,58,5.80
2013,05,01,00,59,5.80
2013,05,01,01,00,5.80
2013,05,01,01,01,5.70
2013,05,01,01,02,5.70
2013,05,01,01,03,5.60
2013,05,01,01,04,5.60
2013,05,01,01,05,5.60
2013,05,01,01,06,5.60
2013,05,01,01,07,5.60
2013,05,01,01,08,5.50
2013,05,01,01,09,5.50
2013,05,01,01,10,5.40
2013,05,01,01,11,5.40
2013,05,01,01,12,5.40
2013,05,01,01,13,5.40
2013,05,01,01,14,5.40
2013,05,01,01,15,5.40
2013,05,01,01,16,5.30
2013,05,01,01,17,5.30
2013,05,01,01,18,5.30
2013,05,01,01,19,5.30
2013,05,01,01,20,5.30
2013,05,01,01,21,5.30
2013,05,01,01,22,5.30
2013,05,01,01,23,5.30
2013,05,01,01,24,5.30
2013,05,01,01,25,5.30
2013,05,01,01,26,5.30
2013,05,01,01,27,5.30
2013,05,01,01,28,5.30
2013,05,01,01,29,5.30
2013,05,01,01,30,5.20
2013,05,01,01,31,5.20
2013,05,01,01,32,5.00
2013,05,01,01,33,4.90
2013,05,01,01,34,4.80
2013,05,01,01,35,4.90
2013,05,01,01,36,4.80
2013,05,01,01,37,4.80
2013,05,01,01,38,4.80
2013,05,01,01,39,4.80
2013,05,01,01,40,4.70
2013,05,01,01,41,4.70
2013,05,01,01,42,4.70
2013,05,01,01,43,4.70
2013,05,01,01,44,4.70
2013,05,01,01,45,4.60
2013,05,01,01,46,4.60
2013,05,01,01,47,4.60
2013,05,01,01,48,4.60
2013,05,01,01,49,4.50
2013,05,01,01,50,4.50
2013,05,01,01,51,4.40
2013,05,01,01,52,4.30
2013,05,01,01,53,4.30
2013,05,01,01,54,4.20
2013,05,01,01,55,4.10
2013,05,01,01,56,4.10
2013,05,01,01,57,4.00
2013,05,01,01,58,4.00
2013,05,01,01,59,4.00
2013,05,01,02,00,4.00
2013,05,01,02,01,3.90
2013,05,01,02,02,3.90
2013,05,01,02,03,3.80
2013,05,01,02,04,3.70
2013,05,01,02,05,3.60
2013,05,01,02,06,3.60
2013,05,01,02,07,3.50
2013,05,01,02,08,3.50
2013,05,01,02,09,3.40
2013,05,01,02,10,3.30
2013,05,01,02,11,3.30
2013,05,01,02,12,3.30
2013,05,01,02,13,3.30
2013,05,01,02,14,3.20
2013,05,01,02,15,3.30
2013,05,01,02,16,3.30
2013,05,01,02,17,3.40
2013,05,01,02,18,3.40
2013,05,01,02,19,3.50
2013,05,01,02,20,3.50
2013,05,01,02,21,3.50
2013,05,01,02,22,3.60
2013,05,01,02,23,3.70
2013,05,01,02,24,3.80
2013,05,01,02,25,3.90
2013,05,01,02,26,4.00
2013,05,01,02,27,4.10
2013,05,01,02,28,4.10
2013,05,01,02,29,4.20
2013,05,01,02,30,4.10
2013,05,01,02,31,4.20
2013,05,01,02,32,4.10
2013,05,01,02,33,4.10
2013,05,01,02,34,4.20
2013,05,01,02,35,4.20
2013,05,01,02,36,4.20
2013,05,01,02,37,4.30
2013,05,01,02,38,4.30
2013,05,01,02,39,4.40
2013,05,01,02,40,4.40
2013,05,01,02,41,4.40
2013,05,01,02,42,4.50
2013,05,01,02,43,4.50
2013,05,01,02,44,4.50
2013,05,01,02,45,4.60
2013,05,01,02,46,4.60
2013,05,01,02,47,4.60
2013,05,01,02,48,4.70
2013,05,01,02,49,4.70
2013,05,01,02,50,4.70
2013,05,01,02,51,4.70
2013,05,01,02,52,4.70
2013,05,01,02,53,4.70
2013,05,01,02,54,4.70
2013,05,01,02,55,4.70
2013,05,01,02,56,4.60
2013,05,01,02,57,4.60
2013,05,01,02,58,4.60
2013,05,01,02,59,4.50
2013,05,01,03,00,4.50
2013,05,01,03,01,4.40
2013,05,01,03,02,4.40
2013,05,01,03,03,4.40
2013,05,01,03,04,4.40
2013,05,01,03,05,4.40
2013,05,01,03,06,4.40
2013,05,01,03,07,4.40
2013,05,01,03,08,4.40
2013,05,01,03,09,4.40
2013,05,01,03,10,4.30
2013,05,01,03,11,4.20
2013,05,01,03,12,4.10
2013,05,01,03,13,4.00
2013,05,01,03,14,3.90
2013,05,01,03,15,3.70
2013,05,01,03,16,3.60
2013,05,01,03,17,3.40
2013,05,01,03,18,3.30
2013,05,01,03,19,3.20
2013,05,01,03,20,3.20
2013,05,01,03,21,3.30
2013,05,01,03,22,3.30
2013,05,01,03,23,3.40
2013,05,01,03,24,3.60
2013,05,01,03,25,3.70
2013,05,01,03,26,3.80
2013,05,01,03,27,3.90
2013,05,01,03,28,3.90
2013,05,01,03,29,3.90
2013,05,01,03,30,3.90
2013,05,01,03,31,3.90
2013,05,01,03,32,3.90
2013,05,01,03,33,3.90
2013,05,01,03,34,3.90
2013,05,01,03,35,3.80
2013,05,01,03,36,3.80
2013,05,01,03,37,3.70
2013,05,01,03,38,3.70
2013,05,01,03,39,3.70
2013,05,01,03,40,3.70
2013,05,01,03,41,3.70
2013,05,01,03,42,3.70
2013,05,01,03,43,3.70
2013,05,01,03,44,3.70
2013,05,01,03,45,3.80
2013,05,01,03,46,3.80
2013,05,01,03,47,3.80
2013,05,01,03,48,3.70
2013,05,01,03,49,3.60
2013,05,01,03,50,3.60
2013,05,01,03,51,3.50
2013,05,01,03,52,3.40
2013,05,01,03,53,3.40
2013,05,01,03,54,3.30
2013,05,01,03,55,3.30
2013,05,01,03,56,3.30
2013,05,01,03,57,3.40
2013,05,01,03,58,3.40
2013,05,01,03,59,3.40
2013,05,01,04,00,3.30
2013,05,01,04,01,3.20
2013,05,01,04,02,3.10
2013,05,01,04,03,3.00
2013,05,01,04,04,3.00
2013,05,01,04,05,2.90
2013,05,01,04,06,2.80
2013,05,01,04,07,2.70
2013,05,01,04,08,2.60
2013,05,01,04,09,2.50
2013,05,01,04,10,2.50
2013,05,01,04,11,2.60
2013,05,01,04,12,2.60
2013,05,01,04,13,2.50
2013,05,01,04,14,2.40
2013,05,01,04,15,2.40
2013,05,01,04,16,2.30
2013,05,01,04,17,2.30
2013,05,01,04,18,2.20
2013,05,01,04,19,2.20
2013,05,01,04,20,2.20
2013,05,01,04,21,2.20
2013,05,01,04,22,2.20
2013,05,01,04,23,2.20
2013,05,01,04,24,2.30
2013,05,01,04,25,2.30
2013,05,01,04,26,2.40
2013,05,01,04,27,2.50
2013,05,01,04,28,2.60
2013,05,01,04,29,2.60
2013,05,01,04,30,2.60
2013,05,01,04,31,2.50
2013,05,01,04,32,2.50
2013,05,01,04,33,2.30
2013,05,01,04,34,2.20
2013,05,01,04,35,2.10
2013,05,01,04,36,2.00
2013,05,01,04,37,1.90
2013,05,01,04,38,1.80
2013,05,01,04,39,1.80
2013,05,01,04,40,1.70
2013,05,01,04,41,1.70
2013,05,01,04,42,1.70
2013,05,01,04,43,1.70
2013,05,01,04,44,1.70
2013,05,01,04,45,1.70
2013,05,01,04,46,1.70
2013,05,01,04,47,1.70
2013,05,01,04,48,1.70
2013,05,01,04,49,1.70
2013,05,01,04,50,1.70
2013,05,01,04,51,1.70
2013,05,01,04,52,1.70
2013,05,01,04,53,1.70
2013,05,01,04,54,1.70
2013,05,01,04,55,1.60
2013,05,01,04,56,1.60
2013,05,01,04,57,1.60
2013,05,01,04,58,1.60
2013,05,01,04,59,1.60
2013,05,01,05,00,1.60
2013,05,01,05,01,1.60
2013,05,01,05,02,1.70
2013,05,01,05,03,1.70
2013,05,01,05,04,1.70
2013,05,01,05,05,1.70
2013,05,01,05,06,1.60
2013,05,01,05,07,1.60
2013,05,01,05,08,1.50
2013,05,01,05,09,1.40
2013,05,01,05,10,1.40
2013,05,01,05,11,1.30
2013,05,01,05,12,1.30
2013,05,01,05,13,1.30
2013,05,01,05,14,1.30
2013,05,01,05,15,1.30
2013,05,01,05,16,1.30
2013,05,01,05,17,1.30
2013,05,01,05,18,1.30
2013,05,01,05,19,1.40
2013,05,01,05,20,1.50
2013,05,01,05,21,1.70
2013,05,01,05,22,1.80
2013,05,01,05,23,1.90
2013,05,01,05,24,2.10
2013,05,01,05,25,2.20
2013,05,01,05,26,2.20
2013,05,01,05,27,2.30
2013,05,01,05,28,2.30
2013,05,01,05,29,2.20
2013,05,01,05,30,2.20
2013,05,01,05,31,2.20
2013,05,01,05,32,2.10
2013,05,01,05,33,2.10
2013,05,01,05,34,2.10
2013,05,01,05,35,2.10
2013,05,01,05,36,2.20
2013,05,01,05,37,2.30
2013,05,01,05,38,2.40
2013,05,01,05,39,2.40
2013,05,01,05,40,2.50
2013,05,01,05,41,2.60
2013,05,01,05,42,2.70
2013,05,01,05,43,2.80
2013,05,01,05,44,2.80
2013,05,01,05,45,2.90
2013,05,01,05,46,3.00
2013,05,01,05,47,3.00
2013,05,01,05,48,3.10
2013,05,01,05,49,3.10
2013,05,01,05,50,3.10
2013,05,01,05,51,3.10
2013,05,01,05,52,3.00
2013,05,01,05,53,3.00
2013,05,01,05,54,2.90
2013,05,01,05,55,2.80
2013,05,01,05,56,2.70
2013,05,01,05,57,2.70
2013,05,01,05,58,2.70
2013,05,01,05,59,2.70
2013,05,01,06,00,2.70
2013,05,01,06,01,2.70
2013,05,01,06,02,2.70
2013,05,01,06,03,2.70
2013,05,01,06,04,2.60
2013,05,01,06,05,2.50
2013,05,01,06,06,2.40
2013,05,01,06,07,2.40
2013,05,01,06,08,2.40
2013,05,01,06,09,2.50
2013,05,01,06,10,2.50
2013,05,01,06,11,2.60
2013,05,01,06,12,2.60
2013,05,01,06,13,2.70
2013,05,01,06,14,2.60
2013,05,01,06,15,2.60
2013,05,01,06,16,2.50
2013,05,01,06,17,2.40
2013,05,01,06,18,2.40
2013,05,01,06,19,2.40
2013,05,01,06,20,2.50
2013,05,01,06,21,2.50
2013,05,01,06,22,2.50
2013,05,01,06,23,2.60
2013,05,01,06,24,2.60
2013,05,01,06,25,2.60
2013,05,01,06,26,2.60
2013,05,01,06,27,2.60
2013,05,01,06,28,2.60
2013,05,01,06,29,2.60
2013,05,01,06,30,2.60
2013,05,01,06,31,2.60
2013,05,01,06,32,2.60
2013,05,01,06,33,2.60
2013,05,01,06,34,2.60
2013,05,01,06,35,2.60
2013,05,01,06,36,2.60
2013,05,01,06,37,2.60
2013,05,01,06,38,2.60
2013,05,01,06,39,2.60
2013,05,01,06,40,2.60
2013,05,01,06,41,2.60
2013,05,01,06,42,2.70
2013,05,01,06,43,2.70
2013,05,01,06,44,2.80
2013,05,01,06,45,2.90
2013,05,01,06,46,3.00
2013,05,01,06,47,3.00
2013,05,01,06,48,3.10
2013,05,01,06,49,3.20
2013,05,01,06,50,3.30
2013,05,01,06,51,3.40
2013,05,01,06,52,3.50
2013,05,01,06,53,3.60
2013,05,01,06,54,3.60
2013,05,01,06,55,3.70
2013,05,01,06,56,3.70
2013,05,01,06,57,3.80
2013,05,01,06,58,3.80
2013,05,01,06,59,3.90
2013,05,01,07,00,3.90
2013,05,01,07,01,4.00
2013,05,01,07,02,4.00
2013,05,01,07,03,4.10
2013,05,01,07,04,4.20
2013,05,01,07,05,4.20
2013,05,01,07,06,4.30
2013,05,01,07,07,4.30
2013,05,01,07,08,4.30
2013,05,01,07,09,4.40
2013,05,01,07,10,4.40
2013,05,01,07,11,4.50
2013,05,01,07,12,4.60
2013,05,01,07,13,4.70
2013,05,01,07,14,4.70
2013,05,01,07,15,4.80
2013,05,01,07,16,4.80
2013,05,01,07,17,4.90
2013,05,01,07,18,4.90
2013,05,01,07,19,5.00
2013,05,01,07,20,5.00
2013,05,01,07,21,5.10
2013,05,01,07,22,5.20
2013,05,01,07,23,5.20
2013,05,01,07,24,5.30
2013,05,01,07,25,5.30
2013,05,01,07,26,5.40
2013,05,01,07,27,5.50
2013,05,01,07,28,5.50
2013,05,01,07,29,5.60
2013,05,01,07,30,5.70
2013,05,01,07,31,5.70
2013,05,01,07,32,5.80
2013,05,01,07,33,5.80
2013,05,01,07,34,5.90
2013,05,01,07,35,6.00
2013,05,01,07,36,6.10
2013,05,01,07,37,6.20
2013,05,01,07,38,6.30
2013,05,01,07,39,6.30
2013,05,01,07,40,6.40
2013,05,01,07,41,6.40
2013,05,01,07,42,6.50
2013,05,01,07,43,6.60
2013,05,01,07,44,6.60
2013,05,01,07,45,6.70
2013,05,01,07,46,6.70
2013,05,01,07,47,6.80
2013,05,01,07,48,6.80
2013,05,01,07,49,6.90
2013,05,01,07,50,6.90
2013,05,01,07,51,7.00
2013,05,01,07,52,7.10
2013,05,01,07,53,7.10
2013,05,01,07,54,7.10
2013,05,01,07,55,7.20
2013,05,01,07,56,7.20
2013,05,01,07,57,7.20
2013,05,01,07,58,7.20
2013,05,01,07,59,7.30
2013,05,01,08,00,7.30
2013,05,01,08,01,7.30
2013,05,01,08,02,7.30
2013,05,01,08,03,7.40
2013,05,01,08,04,7.50
2013,05,01,08,05,7.60
2013,05,01,08,06,7.60
2013,05,01,08,07,7.70
2013,05,01,08,08,7.80
2013,05,01,08,09,7.80
2013,05,01,08,10,7.90
2013,05,01,08,11,7.90
2013,05,01,08,12,7.90
2013,05,01,08,13,7.90
2013,05,01,08,14,7.90
2013,05,01,08,15,7.90
2013,05,01,08,16,7.90
2013,05,01,08,17,7.80
2013,05,01,08,18,7.80
2013,05,01,08,19,7.70
2013,05,01,08,20,7.70
2013,05,01,08,21,7.70
2013,05,01,08,22,7.80
2013,05,01,08,23,7.80
2013,05,01,08,24,7.80
2013,05,01,08,25,7.80
2013,05,01,08,26,7.80
2013,05,01,08,27,7.90
2013,05,01,08,28,7.90
2013,05,01,08,29,7.90
2013,05,01,08,30,8.00
2013,05,01,08,31,8.00
2013,05,01,08,32,7.90
2013,05,01,08,33,7.90
2013,05,01,08,34,7.90
2013,05,01,08,35,7.90
2013,05,01,08,36,7.90
2013,05,01,08,37,7.90
2013,05,01,08,38,8.00
2013,05,01,08,39,8.00
2013,05,01,08,40,8.00
2013,05,01,08,41,8.10
2013,05,01,08,42,8.20
2013,05,01,08,43,8.20
2013,05,01,08,44,8.20
2013,05,01,08,45,8.20
2013,05,01,08,46,8.20
2013,05,01,08,47,8.30
2013,05,01,08,48,8.30
2013,05,01,08,49,8.30
2013,05,01,08,50,8.30
2013,05,01,08,51,8.30
2013,05,01,08,52,8.30
2013,05,01,08,53,8.30
2013,05,01,08,54,8.30
2013,05,01,08,55,8.40
2013,05,01,08,56,8.40
2013,05,01,08,57,8.50
2013,05,01,08,58,8.50
2013,05,01,08,59,8.60
2013,05,01,09,00,8.70
2013,05,01,09,01,8.70
2013,05,01,09,02,8.80
2013,05,01,09,03,8.90
2013,05,01,09,04,9.00
2013,05,01,09,05,9.10
2013,05,01,09,06,9.10
2013,05,01,09,07,9.10
2013,05,01,09,08,9.00
2013,05,01,09,09,9.00
2013,05,01,09,10,9.00
2013,05,01,09,11,8.90
2013,05,01,09,12,8.90
2013,05,01,09,13,8.90
2013,05,01,09,14,8.90
2013,05,01,09,15,8.90
2013,05,01,09,16,8.90
2013,05,01,09,17,9.00
2013,05,01,09,18,8.90
2013,05,01,09,19,8.90
2013,05,01,09,20,8.80
2013,05,01,09,21,8.80
2013,05,01,09,22,8.90
2013,05,01,09,23,8.90
2013,05,01,09,24,9.00
2013,05,01,09,25,9.10
2013,05,01,09,26,9.20
2013,05,01,09,27,9.20
2013,05,01,09,28,9.30
2013,05,01,09,29,9.30
2013,05,01,09,30,9.40
2013,05,01,09,31,9.40
2013,05,01,09,32,9.50
2013,05,01,09,33,9.50
2013,05,01,09,34,9.50
2013,05,01,09,35,9.50
2013,05,01,09,36,9.40
2013,05,01,09,37,9.50
2013,05,01,09,38,9.50
2013,05,01,09,39,9.60
2013,05,01,09,40,9.70
2013,05,01,09,41,9.80
2013,05,01,09,42,9.80
2013,05,01,09,43,9.80
2013,05,01,09,44,9.80
2013,05,01,09,45,9.80
2013,05,01,09,46,9.80
2013,05,01,09,47,9.80
2013,05,01,09,48,9.80
2013,05,01,09,49,9.70
2013,05,01,09,50,9.70
2013,05,01,09,51,9.60
2013,05,01,09,52,9.60
2013,05,01,09,53,9.70
2013,05,01,09,54,9.60
2013,05,01,09,55,9.60
2013,05,01,09,56,9.60
2013,05,01,09,57,9.60
2013,05,01,09,58,9.70
2013,05,01,09,59,9.60
2013,05,01,10,00,9.60
2013,05,01,10,01,9.60
2013,05,01,10,02,9.70
2013,05,01,10,03,9.80
2013,05,01,10,04,9.80
2013,05,01,10,05,9.80
2013,05,01,10,06,9.90
2013,05,01,10,07,9.90
2013,05,01,10,08,9.90
2013,05,01,10,09,9.90
2013,05,01,10,10,9.90
2013,05,01,10,11,9.90
2013,05,01,10,12,9.90
2013,05,01,10,13,9.80
2013,05,01,10,14,9.90
2013,05,01,10,15,9.90
2013,05,01,10,16,9.90
2013,05,01,10,17,9.90
2013,05,01,10,18,9.80
2013,05,01,10,19,9.80
2013,05,01,10,20,9.80
2013,05,01,10,21,9.80
2013,05,01,10,22,9.80
2013,05,01,10,23,9.80
2013,05,01,10,24,9.90
2013,05,01,10,25,9.90
2013,05,01,10,26,10.00
2013,05,01,10,27,10.00
2013,05,01,10,28,10.00
2013,05,01,10,29,10.00
2013,05,01,10,30,10.00
2013,05,01,10,31,10.10
2013,05,01,10,32,10.10
2013,05,01,10,33,10.20
2013,05,01,10,34,10.20
2013,05,01,10,35,10.20
2013,05,01,10,36,10.10
2013,05,01,10,37,9.90
2013,05,01,10,38,9.80
2013,05,01,10,39,9.80
2013,05,01,10,40,9.80
2013,05,01,10,41,9.80
2013,05,01,10,42,9.80
2013,05,01,10,43,9.80
2013,05,01,10,44,9.80
2013,05,01,10,45,9.80
2013,05,01,10,46,9.90
2013,05,01,10,47,9.90
2013,05,01,10,48,10.00
2013,05,01,10,49,10.10
2013,05,01,10,50,10.10
2013,05,01,10,51,10.20
2013,05,01,10,52,10.30
2013,05,01,10,53,10.20
2013,05,01,10,54,10.20
2013,05,01,10,55,10.20
2013,05,01,10,56,10.20
2013,05,01,10,57,10.20
2013,05,01,10,58,10.00
2013,05,01,10,59,10.00
2013,05,01,11,00,10.00
2013,05,01,11,01,10.10
2013,05,01,11,02,10.20
2013,05,01,11,03,10.20
2013,05,01,11,04,10.30
2013,05,01,11,05,10.30
2013,05,01,11,06,10.30
2013,05,01,11,07,10.40
2013,05,01,11,08,10.40
2013,05,01,11,09,10.40
2013,05,01,11,10,10.40
2013,05,01,11,11,10.50
2013,05,01,11,12,10.50
2013,05,01,11,13,10.60
2013,05,01,11,14,10.60
2013,05,01,11,15,10.60
2013,05,01,11,16,10.60
2013,05,01,11,17,10.60
2013,05,01,11,18,10.70
2013,05,01,11,19,10.60
2013,05,01,11,20,10.50
2013,05,01,11,21,10.50
2013,05,01,11,22,10.50
2013,05,01,11,23,10.40
2013,05,01,11,24,10.40
2013,05,01,11,25,10.30
2013,05,01,11,26,10.20
2013,05,01,11,27,10.30
2013,05,01,11,28,10.30
2013,05,01,11,29,10.40
2013,05,01,11,30,10.40
2013,05,01,11,31,10.30
2013,05,01,11,32,10.30
2013,05,01,11,33,10.30
2013,05,01,11,34,10.30
2013,05,01,11,35,10.30
2013,05,01,11,36,10.40
2013,05,01,11,37,10.50
2013,05,01,11,38,10.60
2013,05,01,11,39,10.70
2013,05,01,11,40,10.70
2013,05,01,11,41,10.70
2013,05,01,11,42,10.70
2013,05,01,11,43,10.70
2013,05,01,11,44,10.80
2013,05,01,11,45,10.80
2013,05,01,11,46,10.80
2013,05,01,11,47,10.80
2013,05,01,11,48,10.80
2013,05,01,11,49,10.90
2013,05,01,11,50,11.00
2013,05,01,11,51,11.00
2013,05,01,11,52,10.80
2013,05,01,11,53,10.80
2013,05,01,11,54,10.70
2013,05,01,11,55,10.70
2013,05,01,11,56,10.70
2013,05,01,11,57,10.60
2013,05,01,11,58,10.60
2013,05,01,11,59,10.60
2013,05,01,12,00,10.60
2013,05,01,12,01,10.70
2013,05,01,12,02,10.80
2013,05,01,12,03,10.90
2013,05,01,12,04,10.90
2013,05,01,12,05,11.00
2013,05,01,12,06,11.00
2013,05,01,12,07,11.10
2013,05,01,12,08,11.10
2013,05,01,12,09,11.20
2013,05,01,12,10,11.30
2013,05,01,12,11,11.30
2013,05,01,12,12,11.20
2013,05,01,12,13,11.10
2013,05,01,12,14,11.10
2013,05,01,12,15,11.20
2013,05,01,12,16,11.20
2013,05,01,12,17,11.10
2013,05,01,12,18,11.10
2013,05,01,12,19,11.00
2013,05,01,12,20,11.00
2013,05,01,12,21,11.00
2013,05,01,12,22,11.00
2013,05,01,12,23,11.10
2013,05,01,12,24,11.10
2013,05,01,12,25,11.20
2013,05,01,12,26,11.20
2013,05,01,12,27,11.20
2013,05,01,12,28,11.20
2013,05,01,12,29,11.20
2013,05,01,12,30,11.20
2013,05,01,12,31,11.30
2013,05,01,12,32,11.30
2013,05,01,12,33,11.10
2013,05,01,12,34,11.10
2013,05,01,12,35,11.10
2013,05,01,12,36,11.20
2013,05,01,12,37,11.30
2013,05,01,12,38,11.40
2013,05,01,12,39,11.50
2013,05,01,12,40,11.70
2013,05,01,12,41,11.80
2013,05,01,12,42,11.80
2013,05,01,12,43,11.70
2013,05,01,12,44,11.60
2013,05,01,12,45,11.60
2013,05,01,12,46,11.50
2013,05,01,12,47,11.40
2013,05,01,12,48,11.40
2013,05,01,12,49,11.50
2013,05,01,12,50,11.60
2013,05,01,12,51,11.80
2013,05,01,12,52,11.90
2013,05,01,12,53,12.00
2013,05,01,12,54,12.10
2013,05,01,12,55,12.20
2013,05,01,12,56,12.20
2013,05,01,12,57,12.10
2013,05,01,12,58,12.00
2013,05,01,12,59,11.90
2013,05,01,13,00,11.90
2013,05,01,13,01,11.80
2013,05,01,13,02,11.80
2013,05,01,13,03,11.80
2013,05,01,13,04,11.80
2013,05,01,13,05,11.70
2013,05,01,13,06,11.60
2013,05,01,13,07,11.50
2013,05,01,13,08,11.50
2013,05,01,13,09,11.40
2013,05,01,13,10,11.40
2013,05,01,13,11,11.50
2013,05,01,13,12,11.50
2013,05,01,13,13,11.60
2013,05,01,13,14,11.50
2013,05,01,13,15,11.40
2013,05,01,13,16,11.30
2013,05,01,13,17,11.20
2013,05,01,13,18,11.20
2013,05,01,13,19,11.20
2013,05,01,13,20,11.20
2013,05,01,13,21,11.30
2013,05,01,13,22,11.40
2013,05,01,13,23,11.50
2013,05,01,13,24,11.60
2013,05,01,13,25,11.60
2013,05,01,13,26,11.80
2013,05,01,13,27,11.90
2013,05,01,13,28,12.00
2013,05,01,13,29,12.00
2013,05,01,13,30,11.90
2013,05,01,13,31,11.90
2013,05,01,13,32,11.90
2013,05,01,13,33,11.80
2013,05,01,13,34,11.80
2013,05,01,13,35,11.80
2013,05,01,13,36,11.80
2013,05,01,13,37,11.70
2013,05,01,13,38,11.70
2013,05,01,13,39,11.70
2013,05,01,13,40,11.80
2013,05,01,13,41,11.90
2013,05,01,13,42,12.00
2013,05,01,13,43,11.90
2013,05,01,13,44,12.00
2013,05,01,13,45,12.10
2013,05,01,13,46,12.10
2013,05,01,13,47,12.10
2013,05,01,13,48,12.00
2013,05,01,13,49,11.80
2013,05,01,13,50,11.90
2013,05,01,13,51,11.90
2013,05,01,13,52,11.90
2013,05,01,13,53,12.00
2013,05,01,13,54,12.10
2013,05,01,13,55,12.00
2013,05,01,13,56,11.90
2013,05,01,13,57,12.00
2013,05,01,13,58,12.10
2013,05,01,13,59,12.20
2013,05,01,14,00,12.30
2013,05,01,14,01,12.40
2013,05,01,14,02,12.50
2013,05,01,14,03,12.50
2013,05,01,14,04,12.50
2013,05,01,14,05,12.50
2013,05,01,14,06,12.40
2013,05,01,14,07,12.40
2013,05,01,14,08,12.40
2013,05,01,14,09,12.40
2013,05,01,14,10,12.40
2013,05,01,14,11,12.40
2013,05,01,14,12,12.50
2013,05,01,14,13,12.50
2013,05,01,14,14,12.60
2013,05,01,14,15,12.60
2013,05,01,14,16,12.70
2013,05,01,14,17,12.70
2013,05,01,14,18,12.70
2013,05,01,14,19,12.70
2013,05,01,14,20,12.70
2013,05,01,14,21,12.60
2013,05,01,14,22,12.50
2013,05,01,14,23,12.50
2013,05,01,14,24,12.40
2013,05,01,14,25,12.40
2013,05,01,14,26,12.50
2013,05,01,14,27,12.40
2013,05,01,14,28,12.40
2013,05,01,14,29,12.40
2013,05,01,14,30,12.40
2013,05,01,14,31,12.40
2013,05,01,14,32,12.50
2013,05,01,14,33,12.60
2013,05,01,14,34,12.60
2013,05,01,14,35,12.60
2013,05,01,14,36,12.50
2013,05,01,14,37,12.40
2013,05,01,14,38,12.30
2013,05,01,14,39,12.30
2013,05,01,14,40,12.30
2013,05,01,14,41,12.40
2013,05,01,14,42,12.50
2013,05,01,14,43,12.50
2013,05,01,14,44,12.60
2013,05,01,14,45,12.60
2013,05,01,14,46,12.60
2013,05,01,14,47,12.70
2013,05,01,14,48,12.80
2013,05,01,14,49,12.80
2013,05,01,14,50,12.80
2013,05,01,14,51,12.80
2013,05,01,14,52,12.80
2013,05,01,14,53,12.80
2013,05,01,14,54,12.80
2013,05,01,14,55,12.90
2013,05,01,14,56,12.90
2013,05,01,14,57,12.90
2013,05,01,14,58,13.00
2013,05,01,14,59,13.00
2013,05,01,15,00,13.00
2013,05,01,15,01,13.00
2013,05,01,15,02,13.00
2013,05,01,15,03,13.00
2013,05,01,15,04,13.00
2013,05,01,15,05,13.00
2013,05,01,15,06,12.90
2013,05,01,15,07,12.80
2013,05,01,15,08,12.80
2013,05,01,15,09,12.90
2013,05,01,15,10,12.90
2013,05,01,15,11,12.90
2013,05,01,15,12,13.00
2013,05,01,15,13,13.10
2013,05,01,15,14,13.20
2013,05,01,15,15,13.20
2013,05,01,15,16,13.20
2013,05,01,15,17,13.20
2013,05,01,15,18,13.20
2013,05,01,15,19,13.20
2013,05,01,15,20,13.30
2013,05,01,15,21,13.30
2013,05,01,15,22,13.30
2013,05,01,15,23,13.40
2013,05,01,15,24,13.40
2013,05,01,15,25,13.50
2013,05,01,15,26,13.50
2013,05,01,15,27,13.60
2013,05,01,15,28,13.60
2013,05,01,15,29,13.70
2013,05,01,15,30,13.80
2013,05,01,15,31,13.80
2013,05,01,15,32,13.80
2013,05,01,15,33,13.90
2013,05,01,15,34,13.90
2013,05,01,15,35,13.90
2013,05,01,15,36,14.00
2013,05,01,15,37,14.10
2013,05,01,15,38,14.20
2013,05,01,15,39,14.30
2013,05,01,15,40,14.40
2013,05,01,15,41,14.40
2013,05,01,15,42,14.40
2013,05,01,15,43,14.40
2013,05,01,15,44,14.40
2013,05,01,15,45,14.40
2013,05,01,15,46,14.50
2013,05,01,15,47,14.50
2013,05,01,15,48,14.60
2013,05,01,15,49,14.50
2013,05,01,15,50,14.60
2013,05,01,15,51,14.60
2013,05,01,15,52,14.70
2013,05,01,15,53,14.70
2013,05,01,15,54,14.80
2013,05,01,15,55,14.80
2013,05,01,15,56,14.90
2013,05,01,15,57,14.90
2013,05,01,15,58,14.80
2013,05,01,15,59,14.80
2013,05,01,16,00,14.70
2013,05,01,16,01,14.70
2013,05,01,16,02,14.70
2013,05,01,16,03,14.70
2013,05,01,16,04,14.80
2013,05,01,16,05,14.80
2013,05,01,16,06,14.90
2013,05,01,16,07,15.00
2013,05,01,16,08,15.10
2013,05,01,16,09,15.20
2013,05,01,16,10,15.30
2013,05,01,16,11,15.30
2013,05,01,16,12,15.40
2013,05,01,16,13,15.50
2013,05,01,16,14,15.50
2013,05,01,16,15,15.60
2013,05,01,16,16,15.60
2013,05,01,16,17,15.60
2013,05,01,16,18,15.60
2013,05,01,16,19,15.50
2013,05,01,16,20,15.50
2013,05,01,16,21,15.50
2013,05,01,16,22,15.50
2013,05,01,16,23,15.50
2013,05,01,16,24,15.50
2013,05,01,16,25,15.40
2013,05,01,16,26,15.40
2013,05,01,16,27,15.40
2013,05,01,16,28,15.30
2013,05,01,16,29,15.30
2013,05,01,16,30,15.30
2013,05,01,16,31,15.30
2013,05,01,16,32,15.30
2013,05,01,16,33,15.30
2013,05,01,16,34,15.20
2013,05,01,16,35,15.20
2013,05,01,16,36,15.20
2013,05,01,16,37,15.20
2013,05,01,16,38,15.20
2013,05,01,16,39,15.30
2013,05,01,16,40,15.30
2013,05,01,16,41,15.30
2013,05,01,16,42,15.30
2013,05,01,16,43,15.30
2013,05,01,16,44,15.40
2013,05,01,16,45,15.40
2013,05,01,16,46,15.40
2013,05,01,16,47,15.30
2013,05,01,16,48,15.30
2013,05,01,16,49,15.20
2013,05,01,16,50,15.20
2013,05,01,16,51,15.20
2013,05,01,16,52,15.10
2013,05,01,16,53,15.10
2013,05,01,16,54,15.00
2013,05,01,16,55,15.10
2013,05,01,16,56,15.20
2013,05,01,16,57,15.30
2013,05,01,16,58,15.40
2013,05,01,16,59,15.50
2013,05,01,17,00,15.60
2013,05,01,17,01,15.60
2013,05,01,17,02,15.70
2013,05,01,17,03,15.70
2013,05,01,17,04,15.70
2013,05,01,17,05,15.70
2013,05,01,17,06,15.60
2013,05,01,17,07,15.60
2013,05,01,17,08,15.50
2013,05,01,17,09,15.40
2013,05,01,17,10,15.30
2013,05,01,17,11,15.30
2013,05,01,17,12,15.20
2013,05,01,17,13,15.20
2013,05,01,17,14,15.10
2013,05,01,17,15,15.20
2013,05,01,17,16,15.20
2013,05,01,17,17,15.30
2013,05,01,17,18,15.30
2013,05,01,17,19,15.30
2013,05,01,17,20,15.30
2013,05,01,17,21,15.30
2013,05,01,17,22,15.30
2013,05,01,17,23,15.30
2013,05,01,17,24,15.40
2013,05,01,17,25,15.50
2013,05,01,17,26,15.50
2013,05,01,17,27,15.60
2013,05,01,17,28,15.70
2013,05,01,17,29,15.70
2013,05,01,17,30,15.70
2013,05,01,17,31,15.70
2013,05,01,17,32,15.70
2013,05,01,17,33,15.60
2013,05,01,17,34,15.50
2013,05,01,17,35,15.40
2013,05,01,17,36,15.40
2013,05,01,17,37,15.40
2013,05,01,17,38,15.40
2013,05,01,17,39,15.30
2013,05,01,17,40,15.20
2013,05,01,17,41,15.10
2013,05,01,17,42,15.10
2013,05,01,17,43,15.00
2013,05,01,17,44,15.00
2013,05,01,17,45,14.90
2013,05,01,17,46,14.90
2013,05,01,17,47,14.90